owner,sensor,date,latitude,longitude,vertical_datum,wind_speed,wind_to_direction,wind_speed_of_gust,qcFlag 
TABS,ioos:station:TABS:X:1,2017-06-01T00:00:00Z,27.0660,-96.3383,4.0,8.178000978,154.9706779,9.29,'11111222,11111222,11111222' 
TABS,ioos:station:TABS:X:1,2017-06-01T00:30:00Z,27.0660,-96.3383,4.0,8.08566633,153.2450817,9.0,'11111222,11111222,11111222' 
TABS,ioos:station:TABS:X:1,2017-06-01T01:00:00Z,27.0660,-96.3383,4.0,7.68400937,152.5681824,8.67,'11111222,11111222,11111222' 
TABS,ioos:station:TABS:X:1,2017-06-01T01:30:00Z,27.0660,-96.3383,4.0,8.130885561,152.7734199,9.17,'11111222,11111222,11111222' 
TABS,ioos:station:TABS:X:1,2017-06-01T02:00:00Z,27.0660,-96.3383,4.0,6.620483366,156.6880376,7.32,'11111222,11111222,11111222' 
TABS,ioos:station:TABS:X:1,2017-06-01T02:30:00Z,27.0660,-96.3383,4.0,5.462600113,150.6196713,6.25,'11111222,11111222,11111222' 
TABS,ioos:station:TABS:X:1,2017-06-01T03:00:00Z,27.0660,-96.3383,4.0,4.551593128,149.2092331,5.22,'11111222,11111222,11111222' 
TABS,ioos:station:TABS:X:1,2017-06-01T03:30:00Z,27.0660,-96.3383,4.0,5.448678739,148.5856728,6.4,'11111222,11111222,11111222' 
TABS,ioos:station:TABS:X:1,2017-06-01T04:00:00Z,27.0660,-96.3383,4.0,5.761249864,144.3238857,6.46,'11111222,11111222,11111222' 
TABS,ioos:station:TABS:X:1,2017-06-01T04:30:00Z,27.0660,-96.3383,4.0,5.798353214,142.4979788,7.25,'11111222,11111222,11111222' 
TABS,ioos:station:TABS:X:1,2017-06-01T05:00:00Z,27.0660,-96.3383,4.0,5.481505268,145.1795334,6.43,'11111222,11111222,11111222' 
TABS,ioos:station:TABS:X:1,2017-06-01T05:30:00Z,27.0660,-96.3383,4.0,5.899711857,147.0374899,6.76,'11111222,11111222,11111222' 
TABS,ioos:station:TABS:X:1,2017-06-01T06:00:00Z,27.0660,-96.3383,4.0,5.350934498,156.3095765,6.27,'11111222,11111222,11111222' 
TABS,ioos:station:TABS:X:1,2017-06-01T06:30:00Z,27.0660,-96.3383,4.0,5.286548969,154.2107496,5.91,'11111222,11111222,11111222' 
TABS,ioos:station:TABS:X:1,2017-06-01T07:00:00Z,27.0660,-96.3383,4.0,5.050881111,145.6495104,5.69,'11111222,11111222,11111222' 
TABS,ioos:station:TABS:X:1,2017-06-01T07:30:00Z,27.0660,-96.3383,4.0,5.211765536,139.2797692,6.3,'11111222,11111222,11111222' 
TABS,ioos:station:TABS:X:1,2017-06-01T08:00:00Z,27.0660,-96.3383,4.0,5.487667993,129.8994755,6.3,'11111222,11111222,11111222' 
TABS,ioos:station:TABS:X:1,2017-06-01T08:30:00Z,27.0660,-96.3383,4.0,5.922237753,129.0378736,6.76,'11111222,11111222,11111222' 
TABS,ioos:station:TABS:X:1,2017-06-01T09:00:00Z,27.0660,-96.3383,4.0,6.079514783,130.3971767,7.55,'11111222,11111222,11111222' 
TABS,ioos:station:TABS:X:1,2017-06-01T09:30:00Z,27.0660,-96.3383,4.0,6.627955944,131.9425572,7.77,'11111222,11111222,11111222' 
TABS,ioos:station:TABS:X:1,2017-06-01T10:00:00Z,27.0660,-96.3383,4.0,6.866039615,135.1773357,7.73,'11111222,11111222,11111222' 
TABS,ioos:station:TABS:X:1,2017-06-01T10:30:00Z,27.0660,-96.3383,4.0,6.137263234,131.1686852,7.05,'11111222,11111222,11111222' 
TABS,ioos:station:TABS:X:1,2017-06-01T11:00:00Z,27.0660,-96.3383,4.0,6.111448274,129.2897359,7.23,'11111222,11111222,11111222' 
TABS,ioos:station:TABS:X:1,2017-06-01T11:30:00Z,27.0660,-96.3383,4.0,5.614267539,130.9558396,6.55,'11111222,11111222,11111222' 
TABS,ioos:station:TABS:X:1,2017-06-01T12:00:00Z,27.0660,-96.3383,4.0,5.654166605,129.5464096,6.76,'11111222,11111222,11111222' 
TABS,ioos:station:TABS:X:1,2017-06-01T12:30:00Z,27.0660,-96.3383,4.0,5.622259332,126.3199176,6.66,'11111222,11111222,11111222' 
TABS,ioos:station:TABS:X:1,2017-06-01T13:00:00Z,27.0660,-96.3383,4.0,5.832752352,132.3599115,6.87,'11111222,11111222,11111222' 
TABS,ioos:station:TABS:X:1,2017-06-01T13:30:00Z,27.0660,-96.3383,4.0,5.816743075,129.6293336,6.94,'11111222,11111222,11111222' 
TABS,ioos:station:TABS:X:1,2017-06-01T14:00:00Z,27.0660,-96.3383,4.0,5.53675898,135.3661833,6.37,'11111222,11111222,11111222' 
TABS,ioos:station:TABS:X:1,2017-06-01T14:30:00Z,27.0660,-96.3383,4.0,5.133546532,141.7239685,6.1,'11111222,11111222,11111222' 
TABS,ioos:station:TABS:X:1,2017-06-01T15:00:00Z,27.0660,-96.3383,4.0,5.131403317,150.5877845,6.22,'11111222,11111222,11111222' 
TABS,ioos:station:TABS:X:1,2017-06-01T15:30:00Z,27.0660,-96.3383,4.0,4.903162245,156.3106684,5.96,'11111222,11111222,11111222' 
TABS,ioos:station:TABS:X:1,2017-06-01T16:00:00Z,27.0660,-96.3383,4.0,4.966135318,159.1201311,5.6,'11111222,11111222,11111222' 
TABS,ioos:station:TABS:X:1,2017-06-01T16:30:00Z,27.0660,-96.3383,4.0,4.464448454,163.4731007,5.31,'11111222,11111222,11111222' 
TABS,ioos:station:TABS:X:1,2017-06-01T17:00:00Z,27.0660,-96.3383,4.0,4.935392588,164.2462087,5.81,'11111222,11111222,11111222' 
TABS,ioos:station:TABS:X:1,2017-06-01T17:30:00Z,27.0660,-96.3383,4.0,4.642628566,166.8021208,5.46,'11111222,11111222,11111222' 
TABS,ioos:station:TABS:X:1,2017-06-01T18:00:00Z,27.0660,-96.3383,4.0,4.687899316,167.683539,5.7,'11111222,11111222,11111222' 
TABS,ioos:station:TABS:X:1,2017-06-01T18:30:00Z,27.0660,-96.3383,4.0,3.644077387,156.0377775,4.33,'11111222,11111222,11111222' 
TABS,ioos:station:TABS:X:1,2017-06-01T19:00:00Z,27.0660,-96.3383,4.0,3.864531019,137.5171855,4.63,'11111222,11111222,11111222' 
TABS,ioos:station:TABS:X:1,2017-06-01T19:30:00Z,27.0660,-96.3383,4.0,4.420407221,142.3526779,4.97,'11111222,11111222,11111222' 
TABS,ioos:station:TABS:X:1,2017-06-01T20:00:00Z,27.0660,-96.3383,4.0,3.849740251,146.7642843,4.59,'11111222,11111222,11111222' 
TABS,ioos:station:TABS:X:1,2017-06-01T20:30:00Z,27.0660,-96.3383,4.0,4.589564249,154.7194116,5.29,'11111222,11111222,11111222' 
TABS,ioos:station:TABS:X:1,2017-06-01T21:00:00Z,27.0660,-96.3383,4.0,4.81,161.0756103,5.49,'11111222,11111222,11111222' 
TABS,ioos:station:TABS:X:1,2017-06-01T21:30:00Z,27.0660,-96.3383,4.0,3.975889838,152.919639,4.46,'11111222,11111222,11111222' 
TABS,ioos:station:TABS:X:1,2017-06-01T22:00:00Z,27.0660,-96.3383,4.0,4.387368232,148.2302296,5.11,'11111222,11111222,11111222' 
TABS,ioos:station:TABS:X:1,2017-06-01T22:30:00Z,27.0660,-96.3383,4.0,4.479475416,137.2620014,5.05,'11111222,11111222,11111222' 
TABS,ioos:station:TABS:X:1,2017-06-01T23:00:00Z,27.0660,-96.3383,4.0,4.051777388,134.7003412,4.58,'11111222,11111222,11111222' 
TABS,ioos:station:TABS:X:1,2017-06-01T23:30:00Z,27.0660,-96.3383,4.0,4.279310692,133.5800535,4.84,'11111222,11111222,11111222' 
TABS,ioos:station:TABS:X:1,2017-06-02T00:00:00Z,27.0660,-96.3383,4.0,4.390455557,123.7627983,4.97,'11111222,11111222,11111222' 
TABS,ioos:station:TABS:X:1,2017-06-02T00:30:00Z,27.0660,-96.3383,4.0,4.573587214,124.0378623,5.39,'11111222,11111222,11111222' 
TABS,ioos:station:TABS:X:1,2017-06-02T01:00:00Z,27.0660,-96.3383,4.0,5.01003992,126.6415084,5.96,'11111222,11111222,11111222' 
TABS,ioos:station:TABS:X:1,2017-06-02T01:30:00Z,27.0660,-96.3383,4.0,5.290935645,130.5546377,5.84,'11111222,11111222,11111222' 
TABS,ioos:station:TABS:X:1,2017-06-02T02:00:00Z,27.0660,-96.3383,4.0,4.227871805,131.8364395,4.86,'11111222,11111222,11111222' 
TABS,ioos:station:TABS:X:1,2017-06-02T02:30:00Z,27.0660,-96.3383,4.0,3.600347205,126.0745107,4.09,'11111222,11111222,11111222' 
TABS,ioos:station:TABS:X:1,2017-06-02T03:00:00Z,27.0660,-96.3383,4.0,4.202487359,125.9976389,5.11,'11111222,11111222,11111222' 
TABS,ioos:station:TABS:X:1,2017-06-02T03:30:00Z,27.0660,-96.3383,4.0,5.791519662,121.0828699,6.89,'11111222,11111222,11111222' 
TABS,ioos:station:TABS:X:1,2017-06-02T04:00:00Z,27.0660,-96.3383,4.0,5.071104416,118.8903464,5.91,'11111222,11111222,11111222' 
TABS,ioos:station:TABS:X:1,2017-06-02T04:30:00Z,27.0660,-96.3383,4.0,4.731944632,121.6078493,5.36,'11111222,11111222,11111222' 
TABS,ioos:station:TABS:X:1,2017-06-02T05:00:00Z,27.0660,-96.3383,4.0,4.574035417,126.6447587,5.26,'11111222,11111222,11111222' 
TABS,ioos:station:TABS:X:1,2017-06-02T05:30:00Z,27.0660,-96.3383,4.0,4.508935573,120.3756957,5.17,'11111222,11111222,11111222' 
TABS,ioos:station:TABS:X:1,2017-06-02T06:00:00Z,27.0660,-96.3383,4.0,4.29830199,121.8785628,4.87,'11111222,11111222,11111222' 
TABS,ioos:station:TABS:X:1,2017-06-02T06:30:00Z,27.0660,-96.3383,4.0,3.920012755,127.0163944,4.65,'11111222,11111222,11111222' 
TABS,ioos:station:TABS:X:1,2017-06-02T07:00:00Z,27.0660,-96.3383,4.0,4.101036454,116.1905256,4.49,'11111222,11111222,11111222' 
TABS,ioos:station:TABS:X:1,2017-06-02T07:30:00Z,27.0660,-96.3383,4.0,4.611865132,120.3462139,5.06,'11111222,11111222,11111222' 
TABS,ioos:station:TABS:X:1,2017-06-02T08:00:00Z,27.0660,-96.3383,4.0,4.265172916,120.8949909,4.89,'11111222,11111222,11111222' 
TABS,ioos:station:TABS:X:1,2017-06-02T08:30:00Z,27.0660,-96.3383,4.0,3.874893547,114.71354,4.33,'11111222,11111222,11111222' 
TABS,ioos:station:TABS:X:1,2017-06-02T09:00:00Z,27.0660,-96.3383,4.0,3.926652518,104.001242,4.48,'11111222,11111222,11111222' 
TABS,ioos:station:TABS:X:1,2017-06-02T09:30:00Z,27.0660,-96.3383,4.0,4.137728846,103.7007875,5.08,'11111222,11111222,11111222' 
TABS,ioos:station:TABS:X:1,2017-06-02T10:00:00Z,27.0660,-96.3383,4.0,3.647739026,103.9604406,4.15,'11111222,11111222,11111222' 
TABS,ioos:station:TABS:X:1,2017-06-02T10:30:00Z,27.0660,-96.3383,4.0,4.083833983,109.899575,4.72,'11111222,11111222,11111222' 
TABS,ioos:station:TABS:X:1,2017-06-02T11:00:00Z,27.0660,-96.3383,4.0,3.860051813,126.5733664,4.38,'11111222,11111222,11111222' 
TABS,ioos:station:TABS:X:1,2017-06-02T11:30:00Z,27.0660,-96.3383,4.0,3.461517008,123.0936016,4.47,'11111222,11111222,11111222' 
TABS,ioos:station:TABS:X:1,2017-06-02T12:00:00Z,27.0660,-96.3383,4.0,2.978808487,111.0516923,3.34,'11111222,11111222,11111222' 
TABS,ioos:station:TABS:X:1,2017-06-02T12:30:00Z,27.0660,-96.3383,4.0,2.420991532,102.8885759,3.01,'11111222,11111222,11111222' 
TABS,ioos:station:TABS:X:1,2017-06-02T13:00:00Z,27.0660,-96.3383,4.0,2.508884214,100.1009816,2.87,'11111222,11111222,11111222' 
TABS,ioos:station:TABS:X:1,2017-06-02T13:30:00Z,27.0660,-96.3383,4.0,3.526145204,126.3502635,4.09,'11111222,11111222,11111222' 
TABS,ioos:station:TABS:X:1,2017-06-02T14:00:00Z,27.0660,-96.3383,4.0,2.892490277,134.0198013,3.36,'11111222,11111222,11111222' 
TABS,ioos:station:TABS:X:1,2017-06-02T14:30:00Z,27.0660,-96.3383,4.0,2.57200311,126.7811257,3.16,'11111222,11111222,11111222' 
TABS,ioos:station:TABS:X:1,2017-06-02T15:00:00Z,27.0660,-96.3383,4.0,1.960867155,109.3593698,2.42,'11111222,11111222,11111222' 
TABS,ioos:station:TABS:X:1,2017-06-02T15:30:00Z,27.0660,-96.3383,4.0,2.108672568,82.3690427,2.64,'11111222,11111222,11111222' 
TABS,ioos:station:TABS:X:1,2017-06-02T16:00:00Z,27.0660,-96.3383,4.0,2.594339993,86.68500101,3.02,'11111222,11111222,11111222' 
TABS,ioos:station:TABS:X:1,2017-06-02T16:30:00Z,27.0660,-96.3383,4.0,3.086033052,97.44782035,3.83,'11111222,11111222,11111222' 
TABS,ioos:station:TABS:X:1,2017-06-02T17:00:00Z,27.0660,-96.3383,4.0,2.887351728,102.4000583,3.52,'11111222,11111222,11111222' 
TABS,ioos:station:TABS:X:1,2017-06-02T17:30:00Z,27.0660,-96.3383,4.0,2.630532266,79.92853567,3.09,'11111222,11111222,11111222' 
TABS,ioos:station:TABS:X:1,2017-06-02T18:00:00Z,27.0660,-96.3383,4.0,2.274379036,66.13945969,2.8,'11111222,11111222,11111222' 
TABS,ioos:station:TABS:X:1,2017-06-02T18:30:00Z,27.0660,-96.3383,4.0,1.331840831,86.98679862,1.75,'11111222,11111222,11111222' 
TABS,ioos:station:TABS:X:1,2017-06-02T19:00:00Z,27.0660,-96.3383,4.0,1.455266299,100.6926081,2.02,'11111222,11111222,11111222' 
TABS,ioos:station:TABS:X:1,2017-06-02T19:30:00Z,27.0660,-96.3383,4.0,1.807373785,82.04882425,2.38,'11111222,11111222,11111222' 
TABS,ioos:station:TABS:X:1,2017-06-02T20:00:00Z,27.0660,-96.3383,4.0,1.49966663,83.49063786,2.07,'11111222,11111222,11111222' 
TABS,ioos:station:TABS:X:1,2017-06-02T20:30:00Z,27.0660,-96.3383,4.0,3.42242604,103.346356,4.3,'11111222,11111222,11111222' 
TABS,ioos:station:TABS:X:1,2017-06-02T21:00:00Z,27.0660,-96.3383,4.0,3.74786606,101.7000872,4.48,'11111222,11111222,11111222' 
TABS,ioos:station:TABS:X:1,2017-06-02T21:30:00Z,27.0660,-96.3383,4.0,5.002889165,114.5675348,5.63,'11111222,11111222,11111222' 
TABS,ioos:station:TABS:X:1,2017-06-02T22:00:00Z,27.0660,-96.3383,4.0,5.896617675,104.837917,6.78,'11111222,11111222,11111222' 
TABS,ioos:station:TABS:X:1,2017-06-02T22:30:00Z,27.0660,-96.3383,4.0,5.998541489,111.0035945,6.67,'11111222,11111222,11111222' 
TABS,ioos:station:TABS:X:1,2017-06-02T23:00:00Z,27.0660,-96.3383,4.0,5.056530431,108.6861502,6.12,'11111222,11111222,11111222' 
TABS,ioos:station:TABS:X:1,2017-06-02T23:30:00Z,27.0660,-96.3383,4.0,5.938998232,116.6085543,6.96,'11111222,11111222,11111222' 
TABS,ioos:station:TABS:X:1,2017-06-03T00:00:00Z,27.0660,-96.3383,4.0,6.575416337,114.1486482,7.21,'11111222,11111222,11111222' 
TABS,ioos:station:TABS:X:1,2017-06-03T00:30:00Z,27.0660,-96.3383,4.0,5.950033613,120.0557751,6.87,'11111222,11111222,11111222' 
TABS,ioos:station:TABS:X:1,2017-06-03T01:00:00Z,27.0660,-96.3383,4.0,6.820593816,117.3167852,7.78,'11111222,11111222,11111222' 
TABS,ioos:station:TABS:X:1,2017-06-03T01:30:00Z,27.0660,-96.3383,4.0,7.165758857,122.4040802,8.53,'11111222,11111222,11111222' 
TABS,ioos:station:TABS:X:1,2017-06-03T02:00:00Z,27.0660,-96.3383,4.0,6.195692052,122.0743468,7.13,'11111222,11111222,11111222' 
TABS,ioos:station:TABS:X:1,2017-06-03T02:30:00Z,27.0660,-96.3383,4.0,5.184920443,124.9470949,6.49,'11111222,11111222,11111222' 
TABS,ioos:station:TABS:X:1,2017-06-03T03:00:00Z,27.0660,-96.3383,4.0,6.360070754,127.1404928,7.16,'11111222,11111222,11111222' 
TABS,ioos:station:TABS:X:1,2017-06-03T03:30:00Z,27.0660,-96.3383,4.0,5.180289567,128.5737722,5.84,'11111222,11111222,11111222' 
TABS,ioos:station:TABS:X:1,2017-06-03T04:00:00Z,27.0660,-96.3383,4.0,4.970412458,132.0646491,5.84,'11111222,11111222,11111222' 
TABS,ioos:station:TABS:X:1,2017-06-03T04:30:00Z,27.0660,-96.3383,4.0,3.613211868,129.9480211,4.37,'11111222,11111222,11111222' 
TABS,ioos:station:TABS:X:1,2017-06-03T05:00:00Z,27.0660,-96.3383,4.0,3.53831881,121.7139325,4.04,'11111222,11111222,11111222' 
TABS,ioos:station:TABS:X:1,2017-06-03T05:30:00Z,27.0660,-96.3383,4.0,2.935370505,118.4861904,3.35,'11111222,11111222,11111222' 
TABS,ioos:station:TABS:X:1,2017-06-03T06:00:00Z,27.0660,-96.3383,4.0,3.056681207,118.7454507,3.51,'11111222,11111222,11111222' 
TABS,ioos:station:TABS:X:1,2017-06-03T06:30:00Z,27.0660,-96.3383,4.0,2.855591007,118.8990509,3.25,'11111222,11111222,11111222' 
TABS,ioos:station:TABS:X:1,2017-06-03T07:00:00Z,27.0660,-96.3383,4.0,3.559957865,117.0692532,4.25,'11111222,11111222,11111222' 
TABS,ioos:station:TABS:X:1,2017-06-03T07:30:00Z,27.0660,-96.3383,4.0,3.690541966,108.9753724,4.15,'11111222,11111222,11111222' 
TABS,ioos:station:TABS:X:1,2017-06-03T08:00:00Z,27.0660,-96.3383,4.0,3.902870738,109.4566967,4.49,'11111222,11111222,11111222' 
TABS,ioos:station:TABS:X:1,2017-06-03T08:30:00Z,27.0660,-96.3383,4.0,3.743420895,119.4414813,4.31,'11111222,11111222,11111222' 
TABS,ioos:station:TABS:X:1,2017-06-03T09:00:00Z,27.0660,-96.3383,4.0,3.318915486,117.6463316,3.87,'11111222,11111222,11111222' 
TABS,ioos:station:TABS:X:1,2017-06-03T09:30:00Z,27.0660,-96.3383,4.0,3.516390195,119.8462831,4.11,'11111222,11111222,11111222' 
TABS,ioos:station:TABS:X:1,2017-06-03T10:00:00Z,27.0660,-96.3383,4.0,3.763787986,118.7444547,4.22,'11111222,11111222,11111222' 
TABS,ioos:station:TABS:X:1,2017-06-03T10:30:00Z,27.0660,-96.3383,4.0,3.795536853,125.2396949,4.48,'11111222,11111222,11111222' 
TABS,ioos:station:TABS:X:1,2017-06-03T11:00:00Z,27.0660,-96.3383,4.0,4.071523057,123.8855576,4.54,'11111222,11111222,11111222' 
TABS,ioos:station:TABS:X:1,2017-06-03T11:30:00Z,27.0660,-96.3383,4.0,3.393287492,113.9971421,4.3,'11111222,11111222,11111222' 
TABS,ioos:station:TABS:X:1,2017-06-03T12:00:00Z,27.0660,-96.3383,4.0,4.080490167,102.7424198,4.42,'11111222,11111222,11111222' 
TABS,ioos:station:TABS:X:1,2017-06-03T12:30:00Z,27.0660,-96.3383,4.0,3.312174512,92.07669512,3.78,'11111222,11111222,11111222' 
TABS,ioos:station:TABS:X:1,2017-06-03T13:00:00Z,27.0660,-96.3383,4.0,3.554560451,87.09693355,4.03,'11111222,11111222,11111222' 
TABS,ioos:station:TABS:X:1,2017-06-03T13:30:00Z,27.0660,-96.3383,4.0,3.287095983,79.30499643,4.01,'11111222,11111222,11111222' 
TABS,ioos:station:TABS:X:1,2017-06-03T14:00:00Z,27.0660,-96.3383,4.0,3.207771812,73.14639971,3.59,'11111222,11111222,11111222' 
TABS,ioos:station:TABS:X:1,2017-06-03T14:30:00Z,27.0660,-96.3383,4.0,3.428119018,70.93043014,3.89,'11111222,11111222,11111222' 
TABS,ioos:station:TABS:X:1,2017-06-03T15:00:00Z,27.0660,-96.3383,4.0,3.696552448,93.41238255,4.24,'11111222,11111222,11111222' 
TABS,ioos:station:TABS:X:1,2017-06-03T15:30:00Z,27.0660,-96.3383,4.0,3.519502806,96.03497602,4.04,'11111222,11111222,11111222' 
TABS,ioos:station:TABS:X:1,2017-06-03T16:00:00Z,27.0660,-96.3383,4.0,3.201452795,111.4362089,3.66,'11111222,11111222,11111222' 
TABS,ioos:station:TABS:X:1,2017-06-03T16:30:00Z,27.0660,-96.3383,4.0,2.928275943,108.3115781,3.54,'11111222,11111222,11111222' 
TABS,ioos:station:TABS:X:1,2017-06-03T17:00:00Z,27.0660,-96.3383,4.0,2.438708675,107.1722032,2.83,'11111222,11111222,11111222' 
TABS,ioos:station:TABS:X:1,2017-06-03T17:30:00Z,27.0660,-96.3383,4.0,2.631881456,101.3957153,3.1,'11111222,11111222,11111222' 
TABS,ioos:station:TABS:X:1,2017-06-03T18:00:00Z,27.0660,-96.3383,4.0,1.794714462,94.15426429,2.21,'11111222,11111222,11111222' 
TABS,ioos:station:TABS:X:1,2017-06-03T18:30:00Z,27.0660,-96.3383,4.0,1.603277892,71.45166435,2.04,'11111222,11111222,11111222' 
TABS,ioos:station:TABS:X:1,2017-06-03T19:00:00Z,27.0660,-96.3383,4.0,0.95713113,62.63143265,1.69,'11111222,11111222,11111222' 
TABS,ioos:station:TABS:X:1,2017-06-03T19:30:00Z,27.0660,-96.3383,4.0,1.613102601,3.553959466,2.08,'11111222,11111222,11111222' 
TABS,ioos:station:TABS:X:1,2017-06-03T20:00:00Z,27.0660,-96.3383,4.0,1.687720356,40.67463399,2.15,'11111222,11111222,11111222' 
TABS,ioos:station:TABS:X:1,2017-06-03T20:30:00Z,27.0660,-96.3383,4.0,1.875419953,7.352151708,2.45,'11111222,11111222,11111222' 
TABS,ioos:station:TABS:X:1,2017-06-03T21:00:00Z,27.0660,-96.3383,4.0,1.707512811,5.376482396,2.51,'11111222,11111222,11111222' 
TABS,ioos:station:TABS:X:1,2017-06-03T21:30:00Z,27.0660,-96.3383,4.0,1.965960325,44.17534342,2.57,'11111222,11111222,11111222' 
TABS,ioos:station:TABS:X:1,2017-06-03T22:00:00Z,27.0660,-96.3383,4.0,1.583982323,82.38105041,2.11,'11111222,11111222,11111222' 
TABS,ioos:station:TABS:X:1,2017-06-03T22:30:00Z,27.0660,-96.3383,4.0,2.661766331,84.61027993,3.28,'11111222,11111222,11111222' 
TABS,ioos:station:TABS:X:1,2017-06-03T23:00:00Z,27.0660,-96.3383,4.0,2.21650626,83.00282909,2.98,'11111222,11111222,11111222' 
TABS,ioos:station:TABS:X:1,2017-06-03T23:30:00Z,27.0660,-96.3383,4.0,1.782638494,103.9586784,2.35,'11111222,11111222,11111222' 
TABS,ioos:station:TABS:X:1,2017-06-04T00:00:00Z,27.0660,-96.3383,4.0,0.536003731,53.34355638,0.88,'11111222,11111222,11111222' 
TABS,ioos:station:TABS:X:1,2017-06-04T00:30:00Z,27.0660,-96.3383,4.0,0.170293864,3.366242333,0.42,'11111222,11111222,11111222' 
TABS,ioos:station:TABS:X:1,2017-06-04T01:00:00Z,27.0660,-96.3383,4.0,2.672171402,108.7743502,3.32,'11111222,11111222,11111222' 
TABS,ioos:station:TABS:X:1,2017-06-04T01:30:00Z,27.0660,-96.3383,4.0,4.566015769,119.091521,5.14,'11111222,11111222,11111222' 
TABS,ioos:station:TABS:X:1,2017-06-04T02:00:00Z,27.0660,-96.3383,4.0,6.404451577,123.0204608,7.11,'11111222,11111222,11111222' 
TABS,ioos:station:TABS:X:1,2017-06-04T02:30:00Z,27.0660,-96.3383,4.0,6.349834644,135.1279227,7.19,'11111222,11111222,11111222' 
TABS,ioos:station:TABS:X:1,2017-06-04T03:00:00Z,27.0660,-96.3383,4.0,7.087545414,141.9338816,8.14,'11111222,11111222,11111222' 
TABS,ioos:station:TABS:X:1,2017-06-04T03:30:00Z,27.0660,-96.3383,4.0,7.379390219,140.940339,8.91,'11111222,11111222,11111222' 
TABS,ioos:station:TABS:X:1,2017-06-04T04:00:00Z,27.0660,-96.3383,4.0,6.303213466,136.7360162,7.96,'11111222,11111222,11111222' 
TABS,ioos:station:TABS:X:1,2017-06-04T04:30:00Z,27.0660,-96.3383,4.0,5.984454862,140.0844072,7.13,'11111222,11111222,11111222' 
TABS,ioos:station:TABS:X:1,2017-06-04T05:00:00Z,27.0660,-96.3383,4.0,3.282026813,150.6235063,4.11,'11111222,11111222,11111222' 
TABS,ioos:station:TABS:X:1,2017-06-04T05:30:00Z,27.0660,-96.3383,4.0,3.600347205,143.9261207,4.08,'11111222,11111222,11111222' 
TABS,ioos:station:TABS:X:1,2017-06-04T06:00:00Z,27.0660,-96.3383,4.0,3.583517825,146.8423641,4.21,'11111222,11111222,11111222' 
TABS,ioos:station:TABS:X:1,2017-06-04T06:30:00Z,27.0660,-96.3383,4.0,4.034476422,164.6205719,4.56,'11111222,11111222,11111222' 
TABS,ioos:station:TABS:X:1,2017-06-04T07:00:00Z,27.0660,-96.3383,4.0,2.74963634,175.2019706,3.39,'11111222,11111222,11111222' 
TABS,ioos:station:TABS:X:1,2017-06-04T07:30:00Z,27.0660,-96.3383,4.0,3.395320309,176.7923063,4.0,'11111222,11111222,11111222' 
TABS,ioos:station:TABS:X:1,2017-06-04T08:00:00Z,27.0660,-96.3383,4.0,2.869233347,184.5980075,3.44,'11111222,11111222,11111222' 
TABS,ioos:station:TABS:X:1,2017-06-04T08:30:00Z,27.0660,-96.3383,4.0,1.763774362,187.1655024,2.18,'11111222,11111222,11111222' 
TABS,ioos:station:TABS:X:1,2017-06-04T09:00:00Z,27.0660,-96.3383,4.0,1.179915251,211.1304512,1.5,'11111222,11111222,11111222' 
TABS,ioos:station:TABS:X:1,2017-06-04T09:30:00Z,27.0660,-96.3383,4.0,2.281403077,182.0097596,2.85,'11111222,11111222,11111222' 
TABS,ioos:station:TABS:X:1,2017-06-04T10:00:00Z,27.0660,-96.3383,4.0,2.070024154,195.9835887,2.44,'11111222,11111222,11111222' 
TABS,ioos:station:TABS:X:1,2017-06-04T10:30:00Z,27.0660,-96.3383,4.0,2.765682556,200.5319606,3.49,'11111222,11111222,11111222' 
TABS,ioos:station:TABS:X:1,2017-06-04T11:00:00Z,27.0660,-96.3383,4.0,3.709514793,192.6127544,4.27,'11111222,11111222,11111222' 
TABS,ioos:station:TABS:X:1,2017-06-04T11:30:00Z,27.0660,-96.3383,4.0,4.103425398,189.2559166,4.57,'11111222,11111222,11111222' 
TABS,ioos:station:TABS:X:1,2017-06-04T12:00:00Z,27.0660,-96.3383,4.0,3.75,200.6098552,4.3,'11111222,11111222,11111222' 
TABS,ioos:station:TABS:X:1,2017-06-04T12:30:00Z,27.0660,-96.3383,4.0,3.52732193,204.0945848,4.17,'11111222,11111222,11111222' 
TABS,ioos:station:TABS:X:1,2017-06-04T13:00:00Z,27.0660,-96.3383,4.0,3.074231611,208.5659805,3.67,'11111222,11111222,11111222' 
TABS,ioos:station:TABS:X:1,2017-06-04T13:30:00Z,27.0660,-96.3383,4.0,3.47828981,212.9135116,4.2,'11111222,11111222,11111222' 
TABS,ioos:station:TABS:X:1,2017-06-04T14:00:00Z,27.0660,-96.3383,4.0,3.681548587,222.1377067,4.24,'11111222,11111222,11111222' 
TABS,ioos:station:TABS:X:1,2017-06-04T14:30:00Z,27.0660,-96.3383,4.0,2.879461755,210.9297697,3.6,'11111222,11111222,11111222' 
TABS,ioos:station:TABS:X:1,2017-06-04T15:00:00Z,27.0660,-96.3383,4.0,2.50049995,205.3354282,2.98,'11111222,11111222,11111222' 
TABS,ioos:station:TABS:X:1,2017-06-04T15:30:00Z,27.0660,-96.3383,4.0,2.793313445,212.7230359,3.2,'11111222,11111222,11111222' 
TABS,ioos:station:TABS:X:1,2017-06-04T16:00:00Z,27.0660,-96.3383,4.0,2.563376679,214.9921488,3.18,'11111222,11111222,11111222' 
TABS,ioos:station:TABS:X:1,2017-06-04T16:30:00Z,27.0660,-96.3383,4.0,3.191755003,211.5488379,3.75,'11111222,11111222,11111222' 
TABS,ioos:station:TABS:X:1,2017-06-04T17:00:00Z,27.0660,-96.3383,4.0,3.495168093,238.8114077,4.02,'11111222,11111222,11111222' 
TABS,ioos:station:TABS:X:1,2017-06-04T17:30:00Z,27.0660,-96.3383,4.0,2.990468191,255.8708525,3.51,'11111222,11111222,11111222' 
TABS,ioos:station:TABS:X:1,2017-06-04T18:00:00Z,27.0660,-96.3383,4.0,2.4060133,232.9396801,2.91,'11111222,11111222,11111222' 
TABS,ioos:station:TABS:X:1,2017-06-04T18:30:00Z,27.0660,-96.3383,4.0,1.51211772,258.1699143,2.18,'11111222,11111222,11111222' 
TABS,ioos:station:TABS:X:1,2017-06-04T19:00:00Z,27.0660,-96.3383,4.0,1.496829984,229.6063923,1.99,'11111222,11111222,11111222' 
TABS,ioos:station:TABS:X:1,2017-06-04T19:30:00Z,27.0660,-96.3383,4.0,0.993680029,249.3765168,1.59,'11111222,11111222,11111222' 
TABS,ioos:station:TABS:X:1,2017-06-04T20:00:00Z,27.0660,-96.3383,4.0,0.73430239,119.3581058,1.09,'11111222,11111222,11111222' 
TABS,ioos:station:TABS:X:1,2017-06-04T20:30:00Z,27.0660,-96.3383,4.0,2.297063343,111.9870517,3.06,'11111222,11111222,11111222' 
TABS,ioos:station:TABS:X:1,2017-06-04T21:00:00Z,27.0660,-96.3383,4.0,2.746525077,132.3441747,3.34,'11111222,11111222,11111222' 